TimeEDT,TemperatureF,Dew PointF,Humidity,Sea Level PressureIn,VisibilityMPH,Wind Direction,Wind SpeedMPH,Gust SpeedMPH,PrecipitationIn,Events,Conditions,WindDirDegrees,DateUTC
12:51 AM,39.9,34.0,79,30.14,10.0,Variable,4.6,-,N/A,,Overcast,0,2013-04-17 04:51:00
1:51 AM,37.9,32.0,79,30.15,10.0,Variable,3.5,-,N/A,,Scattered Clouds,0,2013-04-17 05:51:00
2:51 AM,36.0,30.0,79,30.17,10.0,Calm,Calm,-,N/A,,Clear,0,2013-04-17 06:51:00
3:51 AM,28.9,28.9,100,30.18,10.0,South,3.5,-,N/A,,Clear,190,2013-04-17 07:51:00
4:51 AM,30.9,28.9,92,30.19,10.0,Calm,Calm,-,N/A,,Clear,0,2013-04-17 08:51:00
5:51 AM,28.9,28.0,96,30.22,5.0,Calm,Calm,-,N/A,,Clear,0,2013-04-17 09:51:00
6:51 AM,33.1,30.0,89,30.23,10.0,Calm,Calm,-,N/A,,Clear,0,2013-04-17 10:51:00
7:51 AM,36.0,30.0,79,30.27,10.0,Variable,5.8,-,N/A,,Clear,0,2013-04-17 11:51:00
8:47 AM,37.4,30.2,75,30.24,10.0,NW,4.6,-,N/A,,Mostly Cloudy,320,2013-04-17 12:47:00
8:51 AM,37.0,30.0,76,30.27,10.0,Calm,Calm,-,N/A,,Mostly Cloudy,0,2013-04-17 12:51:00
9:48 AM,-9999,-9999,N/A,30.26,-9999.0,WNW,8.1,-,N/A,,Scattered Clouds,300,2013-04-17 13:48:00
9:51 AM,-9999,-9999,N/A,30.25,-9999.0,Variable,5.8,-,N/A,,Partly Cloudy,0,2013-04-17 13:51:00
10:28 AM,42.8,30.2,61,30.26,10.0,Variable,4.6,-,N/A,,Mostly Cloudy,0,2013-04-17 14:28:00
10:51 AM,42.1,28.9,60,30.31,10.0,NNW,9.2,-,N/A,,Mostly Cloudy,340,2013-04-17 14:51:00
11:13 AM,42.8,28.4,57,30.27,10.0,WNW,8.1,-,N/A,,Mostly Cloudy,300,2013-04-17 15:13:00
11:51 AM,44.1,28.9,55,30.30,10.0,Variable,4.6,-,N/A,,Scattered Clouds,0,2013-04-17 15:51:00
12:51 PM,46.0,28.9,51,30.29,10.0,Calm,Calm,-,N/A,,Partly Cloudy,0,2013-04-17 16:51:00
1:51 PM,48.0,27.0,44,30.30,10.0,North,8.1,-,N/A,,Partly Cloudy,360,2013-04-17 17:51:00
2:51 PM,48.0,27.0,44,30.31,10.0,Variable,4.6,-,N/A,,Clear,0,2013-04-17 18:51:00
3:51 PM,50.0,27.0,41,30.31,10.0,Variable,6.9,-,N/A,,Clear,0,2013-04-17 19:51:00
4:51 PM,50.0,26.1,39,30.31,10.0,North,5.8,-,N/A,,Clear,350,2013-04-17 20:51:00
5:51 PM,48.9,25.0,39,30.34,10.0,Variable,5.8,-,N/A,,Clear,0,2013-04-17 21:51:00
6:51 PM,48.0,25.0,41,30.34,10.0,NNW,3.5,-,N/A,,Clear,340,2013-04-17 22:51:00
7:51 PM,39.9,26.1,58,30.35,10.0,Calm,Calm,-,N/A,,Clear,0,2013-04-17 23:51:00
8:51 PM,34.0,26.1,73,30.34,10.0,Calm,Calm,-,N/A,,Clear,0,2013-04-18 00:51:00
9:51 PM,34.0,25.0,70,30.28,10.0,NNE,3.5,-,N/A,,Clear,30,2013-04-18 01:51:00
10:51 PM,28.9,24.1,82,30.35,10.0,Calm,Calm,-,N/A,,Clear,0,2013-04-18 02:51:00
11:51 PM,27.0,24.1,89,30.35,10.0,NE,4.6,-,N/A,,Clear,40,2013-04-18 03:51:00